Flag for Croatia Weather past 2 weeks in Zagreb, Croatia

Now
81 °F

Passing clouds.


Feels Like: 81 °F
Forecast: 52 / 64 °F
Wind: 5 mph from North

Location: Zagreb / Pleso

Current Time: Sep 21, 2014 at 5:14:45 PM

Latest Report: Sep 21, 2014 at 4:30 PM


Visibility: N/A

Pressure: 29.86 "Hg

Humidity: 48%

Dew point: 59 °F

Location of ZagrebLocation

Historic Weather in Zagreb — Graph

°F

Zagreb temperature yesterday

Maximum temperature yesterday: 73 °F (at 3:00 PM)
Minimum temperature yesterday: 59 °F (at 3:30 AM)
Average temperature yesterday: 64 °F

Past Weeks' High & Low Weather Summary

 TemperatureHumidityPressure
High81 °F (Sep 9, 3:30 PM)100% (Sep 6, 11:00 PM)30.09 "Hg (Sep 6, 11:00 PM)
Low50 °F (Sep 18, 6:30 AM)45% (Sep 21, 1:30 PM)29.80 "Hg (Sep 11, 3:00 PM)
Average63 °F87%29.98 "Hg
* Reported Sep 6 4:00 PM — Sep 21 4:00 PM, Zagreb, Weather by CustomWeather, © 2014

Note: Actual official high and low records may vary slightly from our data, if they occured in-between our weather recording intervals... More about our weather records

Advertising

Zagreb weather history for previous 24 hours

 ConditionsComfort  
Time TempWeatherWind HumidityBarometerVisibility
4:00 PM
Sep 21
81 °FPassing clouds.5 mph48%29.86 "HgN/A
3:30 PM81 °FPassing clouds.3 mph51%29.89 "HgN/A
3:00 PM81 °FPassing clouds.3 mph45%29.89 "HgN/A
2:30 PM81 °FPassing clouds.1 mph45%29.89 "HgN/A
2:00 PM81 °FPassing clouds.5 mph48%29.92 "HgN/A
1:30 PM81 °FPassing clouds.2 mph45%29.92 "HgN/A
1:00 PM79 °FPassing clouds.2 mph51%29.92 "HgN/A
12:30 PM77 °FPassing clouds.2 mph54%29.92 "HgN/A
12:00 PM77 °FPassing clouds.3 mph54%29.95 "HgN/A
11:30 AM75 °FPassing clouds.2 mph57%29.95 "HgN/A
11:00 AM75 °FPassing clouds.5 mph61%29.95 "HgN/A
10:30 AM73 °FPassing clouds.5 mph69%29.95 "HgN/A
10:00 AM72 °FPassing clouds.3 mph73%29.95 "HgN/A
9:30 AM70 °FPassing clouds.3 mph78%29.95 "HgN/A
9:00 AM68 °FPassing clouds.5 mph83%29.95 "HgN/A
8:30 AM66 °FPassing clouds.6 mph83%29.95 "HgN/A
8:00 AM63 °FSunny.3 mph94%29.92 "Hg10 mi
7:30 AM63 °FClear.3 mph94%29.92 "Hg10 mi
7:00 AM63 °FClear.5 mph88%29.92 "Hg10 mi
6:30 AM63 °FClear.3 mph88%29.92 "Hg10 mi
6:00 AM63 °FClear.3 mph94%29.92 "Hg10 mi
5:30 AM64 °FClear.5 mph88%29.95 "Hg10 mi
5:00 AM64 °FClear.5 mph88%29.95 "Hg10 mi
4:30 AM63 °FClear.6 mph94%29.95 "Hg10 mi
4:00 AM64 °FPassing clouds.6 mph88%29.95 "HgN/A
3:30 AM64 °FPassing clouds.3 mph88%29.95 "HgN/A
3:00 AM64 °FPassing clouds.5 mph88%29.95 "HgN/A
2:30 AM64 °FPassing clouds.3 mph88%29.95 "HgN/A
2:00 AM64 °FPassing clouds.6 mph88%29.95 "HgN/A
1:30 AM64 °FClear.6 mph88%29.95 "Hg10 mi
1:00 AM64 °FClear.5 mph88%29.95 "Hg10 mi
12:30 AM64 °FClear.5 mph88%29.95 "Hg10 mi
12:00 AM64 °FPassing clouds.3 mph88%29.95 "HgN/A
11:30 PM
Sep 20
64 °FClear.3 mph88%29.95 "Hg10 mi
11:00 PM64 °FPassing clouds.3 mph88%29.95 "HgN/A
10:30 PM64 °FClear.6 mph88%29.95 "Hg10 mi
10:00 PM64 °FClear.3 mph88%29.95 "Hg10 mi
9:30 PM66 °FPassing clouds.3 mph83%29.95 "HgN/A
9:00 PM66 °FClear.1 mph88%29.95 "Hg10 mi
8:30 PM66 °FClear.2 mph88%29.95 "Hg10 mi
8:00 PM68 °FClear.3 mph83%29.95 "Hg10 mi
Weather by CustomWeather, © 2014

See weather overviewHow to use our weather pages